Zurück zum Katalog

COSMOS 2341

AktivNavigationPO
NORAD 24772·PAYLOAD·🇷🇺 Russia

Gestartet Apr 17, 1997 von Plesetsk Cosmodrome

Loading…

Nächste Überflüge (nächste 24 Stunden)

TLE

AktuellSource: Space-Track

Epoche: Sep 14, 2026, 11:02 UTC

1 24772U 97017A   26257.45988576  .00000028  00000-0  14322-4 0  9996
2 24772  82.9195  58.9088 0025903  17.4919  10.0854 13.71631693671312

Verfolge COSMOS 2341 in Echtzeit mit AllMySat

Download on the App Store